User: anonymous   Login
Location: Vancouver
(49.2500°N, 123.1330°W)
Time: 12:55:47
(UTC-07:00)
Language:

Cosmos 1340 Rocket - Orbit

View from above orbital plane
View from above orbital plane
View from above satellite
View from above satellite

Ground track
Ground track

The orbit data is extracted from the following two-line orbital elements,

1 13068U 82013B   16125.95369109 +.00000493 +00000-0 +31657-4 0  9991
2 13068 081.2015 328.3791 0020909 221.4120 138.5520 15.06550922861758
Epoch (UTC): 04 May 2016 22:53:18
Eccentricity: 0.0020909
inclination: 81.2015°
perigee height: 532 km
apogee height: 561 km
right ascension of ascending node: 328.3791°
argument of perigee: 221.4120°
revolutions per day: 15.06550922
mean anomaly at epoch: 138.5520°
orbit number at epoch: 86175

The dashed part of the orbit path shows where the satellite is in the earth's shadow,  

DLR